HIMAWARI-9

Last updated on Thu Nov 21 2024 00:02:19 GMT+0000 (Coordinated Universal Time)

1 41836U 16064A 24325.24216204 -.00000274 00000+0 00000+0 0 9998 2 41836 0.0268 176.3600 0001190 84.0022 27.3223 1.00268929 29456
UTC large
Height (km)
Speed (km/s)
/
Latitude / Longitude
Inclination (degrees)
Orbital Period (minutes)
Azimuth
Elevation
Range (km)
Doppler Factor

Next 0 passes for location: London (51.5072 / 0.1276)

Sorry there are no passes over London.